Jordan, MT

8:59 PM MDT on May 28, 2017 (GMT -0600)
Jordan

Weather History for KJDN - February, 2014

Change the Weather History Date:

Monday, February 17, 2014

  Actual Average Record
Temperature  
Mean Temperature 37 °F 23 °F  
Max Temperature 48 °F 36 °F 59 °F (1998)
Min Temperature 26 °F 11 °F -45 °F (1936)
Degree Days  
Heating Degree Days 28 42  
Month to date heating degree days 933 749  
Since 1 July heating degree days 5780 5679  
Cooling Degree Days 0 0  
Month to date cooling degree days 0 0  
Year to date cooling degree days 0 0  
Moisture  
Dew Point 23 °F    
Average Humidity 56    
Maximum Humidity 75    
Minimum Humidity 37    
Precipitation  
Precipitation 0.00 in 0.00 in 0.20 in (1908)
Month to date precipitation 0.21 0.12  
Year to date precipitation 0.43 0.35  
Snow  
Snow 0.00 in - - ()
Month to date snowfall 0.0  
Since 1 July snowfall 0.0  
Snow Depth 0.00 in    
Sea Level Pressure  
Sea Level Pressure 29.66 in    
Wind  
Wind Speed 12 mph (WSW)    
Max Wind Speed 30 mph    
Max Gust Speed 39 mph    
T = Trace of Precipitation, MM = Missing Value Source: NWS Daily Summary

Daily Weather History Graph

Daily Weather History Graph

Search for Another Location

Airport or City:

Trip Planner

Search our weather history database for the weather conditions in past years. The results will help you decide how hot, cold, wet, or windy it might be!

Date:

Astronomy

Feb. 17, 2014 Rise Set
Actual Time 7:09 AM MST 5:34 PM MST
Civil Twilight 6:37 AM MST 6:06 PM MST
Nautical Twilight 6:02 AM MST 6:41 PM MST
Astronomical Twilight 5:26 AM MST 7:17 PM MST
Moon 8:47 PM MST (2/17) 7:58 AM MST (2/17)
Length of Visible Light 11h 28m
Length of Day
10h 25m
Waning Gibbous, 93% of the Moon is Illuminated
Feb 17
Waning Gibbous
Feb 22
Last Quarter
Mar 1
New
Mar 8
First Quarter
Mar 16
Full

Hourly Weather History & Observations

Time (MST) Temp. Windchill Dew Point Humidity Pressure Visibility Wind Dir Wind Speed Gust Speed Precip Events Conditions
12:48 AM 28.9 °F 21.9 °F 21.0 °F 72% 29.83 in - West 6.9 mph - N/A   Unknown
1:48 AM 30.0 °F 21.7 °F 19.9 °F 66% 29.83 in - West 9.2 mph - N/A   Unknown
2:48 AM 28.9 °F 22.8 °F 19.9 °F 69% 29.84 in - WSW 5.8 mph - N/A   Unknown
3:48 AM 28.0 °F 21.7 °F 19.0 °F 69% 29.83 in - WSW 5.8 mph - N/A   Unknown
4:48 AM 28.9 °F 19.2 °F 19.0 °F 67% 29.84 in - SSW 11.5 mph - N/A   Unknown
5:48 AM 28.9 °F 17.7 °F 19.0 °F 67% 29.81 in - SSW 15.0 mph - N/A   Unknown
6:48 AM 28.9 °F 20.4 °F 18.0 °F 64% 29.78 in - SSW 9.2 mph - N/A   Unknown
7:48 AM 32.0 °F 25.6 °F 19.0 °F 59% 29.76 in - West 6.9 mph - N/A   Unknown
8:48 AM 37.0 °F 27.4 °F 18.0 °F 46% 29.73 in - SW 17.3 mph 24.2 mph N/A   Unknown
9:48 AM 41.0 °F 31.9 °F 18.0 °F 40% 29.69 in - SW 19.6 mph 27.6 mph N/A   Unknown
10:48 AM 44.1 °F 34.6 °F 19.0 °F 37% 29.65 in - SW 26.5 mph 39.1 mph N/A   Unknown
11:48 AM 43.0 °F 33.5 °F 21.0 °F 42% 29.64 in - SW 24.2 mph 31.1 mph N/A   Unknown
12:48 PM 46.0 °F 38.5 °F 21.9 °F 39% 29.60 in - SW 19.6 mph 29.9 mph N/A   Unknown
1:48 PM 46.9 °F - 21.9 °F 37% 29.55 in - SW 24.2 mph 33.4 mph N/A   Unknown
2:48 PM 46.9 °F - 25.0 °F 42% 29.54 in - WSW 20.7 mph - N/A   Unknown
3:48 PM 46.0 °F 39.6 °F 25.0 °F 44% 29.54 in - WSW 15.0 mph - N/A   Unknown
4:48 PM 43.0 °F 38.2 °F 28.0 °F 56% 29.54 in - West 8.1 mph - N/A   Unknown
5:48 PM 39.9 °F 35.8 °F 26.1 °F 58% 29.54 in - West 5.8 mph - N/A   Unknown
6:48 PM 39.0 °F 34.0 °F 27.0 °F 62% 29.55 in - WNW 6.9 mph - N/A   Unknown
7:48 PM 39.0 °F 34.8 °F 27.0 °F 62% 29.54 in - West 5.8 mph - N/A   Unknown
8:48 PM 37.9 °F 34.4 °F 28.0 °F 68% 29.53 in - West 4.6 mph - N/A   Unknown
9:48 PM 39.9 °F 33.9 °F 27.0 °F 60% 29.54 in - NNW 9.2 mph - N/A   Unknown
10:48 PM 36.0 °F 30.3 °F 28.0 °F 73% 29.53 in - NW 6.9 mph - N/A   Unknown
11:48 PM 37.9 °F 34.4 °F 27.0 °F 65% 29.54 in - WNW 4.6 mph - N/A   Unknown